Ypsilanti, MI

1:42 PM EDT on May 29, 2017 (GMT -0400)
Willow Run

Weather History for KYIP - May, 2013

Change the Weather History Date:

Friday, May 10, 2013

  Actual Average Record
Temperature  
Mean Temperature 60 °F -  
Max Temperature 75 °F 71 °F 87 °F (1979)
Min Temperature 46 °F 46 °F 34 °F (1983)
Degree Days  
Heating Degree Days 6    
Growing Degree Days 10 (Base 50)    
Moisture  
Dew Point 54 °F    
Average Humidity 74    
Maximum Humidity 88    
Minimum Humidity 55    
Precipitation  
Precipitation 0.30 in - - ()
Sea Level Pressure  
Sea Level Pressure 29.80 in    
Wind  
Wind Speed 10 mph (WSW)    
Max Wind Speed 17 mph    
Max Gust Speed 26 mph    
Visibility 8 miles    
Events Rain    
Averages and records for this station are not official NWS values.
T = Trace of Precipitation, MM = Missing Value Source: NWS Daily Summary

Daily Weather History Graph

Daily Weather History Graph

Search for Another Location

Airport or City:

Trip Planner

Search our weather history database for the weather conditions in past years. The results will help you decide how hot, cold, wet, or windy it might be!

Date:

Astronomy

May. 10, 2013 Rise Set
Actual Time 6:18 AM EDT 8:43 PM EDT
Civil Twilight 5:46 AM EDT 9:15 PM EDT
Nautical Twilight 5:07 AM EDT 9:54 PM EDT
Astronomical Twilight 4:23 AM EDT 10:38 PM EDT
Moon 6:41 AM EDT (5/10) 9:32 PM EDT (5/10)
Length of Visible Light 15h 28m
Length of Day
14h 25m
New Moon, 0% of the Moon is Illuminated
May 10
New Moon
May 18
First Quarter
May 25
Full
May 31
Last Quarter
Jun 8
New

Hourly Weather History & Observations

Time (EDT) Temp. Windchill Dew Point Humidity Pressure Visibility Wind Dir Wind Speed Gust Speed Precip Events Conditions
12:53 AM 66.9 °F - 52.0 °F 59% 29.91 in 10.0 mi SSW 8.1 mph - N/A   Overcast
1:53 AM 64.9 °F - 55.9 °F 73% 29.90 in 10.0 mi WSW 3.5 mph - 0.00 in Rain Light Rain
2:53 AM 64.0 °F - 57.0 °F 78% 29.86 in 9.0 mi NE 3.5 mph - 0.01 in Rain Light Rain
3:53 AM 63.0 °F - 57.9 °F 84% 29.85 in 5.0 mi South 3.5 mph - 0.01 in Rain Light Rain
4:53 AM 62.1 °F - 57.0 °F 84% 29.81 in 6.0 mi SE 6.9 mph - 0.05 in Rain Light Rain
5:39 AM 62.6 °F - 57.2 °F 82% 29.81 in 2.0 mi SE 5.8 mph - 0.04 in Rain Rain
5:53 AM 62.1 °F - 57.9 °F 86% 29.79 in 1.8 mi SE 10.4 mph - 0.09 in Rain Rain
6:11 AM 62.6 °F - 57.2 °F 82% 29.80 in 2.5 mi SE 10.4 mph - 0.05 in Rain Light Rain
6:46 AM 62.6 °F - 59.0 °F 88% 29.79 in 4.0 mi South 10.4 mph - 0.07 in Rain Light Rain
6:53 AM 63.0 °F - 59.0 °F 87% 29.78 in 6.0 mi South 10.4 mph - 0.07 in   Overcast
7:03 AM 64.4 °F - 59.0 °F 83% 29.79 in 5.0 mi South 12.7 mph - N/A   Haze
7:51 AM 64.4 °F - 59.0 °F 83% 29.79 in 5.0 mi SSW 10.4 mph - N/A   Haze
7:53 AM 64.9 °F - 59.0 °F 81% 29.78 in 5.0 mi SSW 11.5 mph - N/A   Haze
8:00 AM 64.4 °F - 59.0 °F 83% 29.80 in 5.0 mi SSW 11.5 mph - N/A   Haze
8:32 AM 66.2 °F - 60.8 °F 83% 29.79 in 6.0 mi SSW 12.7 mph - N/A   Haze
8:53 AM 66.9 °F - 60.1 °F 79% 29.78 in 7.0 mi SW 12.7 mph - N/A   Mostly Cloudy
9:05 AM 66.2 °F - 60.8 °F 83% 29.79 in 8.0 mi SSW 16.1 mph - N/A   Scattered Clouds
9:27 AM 68.0 °F - 60.8 °F 78% 29.79 in 8.0 mi SW 17.3 mph - N/A   Mostly Cloudy
9:42 AM 66.2 °F - 59.0 °F 78% 29.79 in 9.0 mi SSW 16.1 mph 21.9 mph N/A   Overcast
9:53 AM 68.0 °F - 59.0 °F 73% 29.78 in 10.0 mi SSW 16.1 mph 26.5 mph N/A   Overcast
10:53 AM 70.0 °F - 59.0 °F 68% 29.76 in 10.0 mi SW 17.3 mph 21.9 mph N/A   Overcast
11:16 AM 71.6 °F - 59.0 °F 64% 29.77 in 10.0 mi SSW 16.1 mph 25.3 mph N/A   Overcast
11:32 AM 71.6 °F - 59.0 °F 64% 29.78 in 10.0 mi SW 16.1 mph - N/A   Overcast
11:51 AM 73.4 °F - 60.8 °F 65% 29.78 in 10.0 mi SSW 16.1 mph - N/A   Mostly Cloudy
11:53 AM 73.0 °F - 60.1 °F 64% 29.76 in 10.0 mi SSW 17.3 mph - N/A   Mostly Cloudy
1:53 PM 73.0 °F - 55.9 °F 55% 29.75 in 10.0 mi WSW 11.5 mph 26.5 mph N/A   Overcast
2:04 PM 71.6 °F - 57.2 °F 60% 29.77 in 10.0 mi NW 11.5 mph - N/A   Overcast
2:53 PM 73.0 °F - 59.0 °F 61% 29.75 in 10.0 mi WNW 10.4 mph - N/A   Partly Cloudy
3:53 PM 66.9 °F - 55.0 °F 66% 29.76 in 10.0 mi NW 11.5 mph - N/A   Overcast
4:53 PM 62.1 °F - 53.1 °F 72% 29.77 in 10.0 mi NNW 13.8 mph - 0.07 in   Partly Cloudy
5:26 PM 60.8 °F - 50.0 °F 68% 29.78 in 10.0 mi North 15.0 mph - N/A   Mostly Cloudy
5:53 PM 59.0 °F - 48.9 °F 69% 29.78 in 10.0 mi NW 13.8 mph - N/A   Mostly Cloudy
6:53 PM 55.9 °F - 45.0 °F 67% 29.79 in 10.0 mi NNW 11.5 mph - N/A   Overcast
7:27 PM 53.6 °F - 42.8 °F 67% 29.80 in 10.0 mi North 12.7 mph - N/A   Scattered Clouds
7:53 PM 52.0 °F - 42.1 °F 69% 29.80 in 10.0 mi NW 12.7 mph - N/A   Partly Cloudy
8:07 PM 51.8 °F - 42.8 °F 71% 29.82 in 10.0 mi NNW 12.7 mph - N/A   Mostly Cloudy
8:53 PM 48.9 °F - 39.9 °F 71% 29.83 in 10.0 mi NNW 12.7 mph - N/A   Overcast
9:37 PM 46.4 °F 40.4 °F 39.2 °F 76% 29.85 in 10.0 mi NNW 13.8 mph - N/A   Overcast
9:53 PM 46.9 °F - 39.0 °F 74% 29.85 in 10.0 mi NNW 11.5 mph - N/A   Overcast
10:53 PM 46.9 °F - 39.0 °F 74% 29.86 in 10.0 mi North 12.7 mph - N/A   Overcast
11:18 PM 46.4 °F 40.4 °F 37.4 °F 71% 29.87 in 10.0 mi NNW 13.8 mph 25.3 mph N/A   Overcast
11:53 PM 46.0 °F 40.2 °F 37.9 °F 73% 29.86 in 10.0 mi NNW 12.7 mph - N/A   Overcast